"Pseudo-MPEC" for P11XSlD

Created 2024 Sep 6 5:22:14 UT using Find_Orb

Click here for an explanation of pseudo-MPECs

 
 Astrometry: 
     P11XSlD 1C2024 09 03.26463 22 40 27.13 +01 31 19.8    ~949b 21.1 GVNEOCPG96
     P11XSlD 1C2024 09 03.27026 22 40 28.48 +01 31 03.4    ~949b       VNEOCPG96
     P11XSlD 1C2024 09 03.27590 22 40 29.94 +01 30 46.6    ~949b 21.3 GVNEOCPG96
     P11XSlD 1C2024 09 03.28155 22 40 31.36 +01 30 30.5    ~949b 21.7 GVNEOCPG96
     P11XSlD* C2024 09 03.43732322 41 13.203+01 23 08.32   ~93IM 21.91wXNEOCPF51
     P11XSlD  C2024 09 03.46145522 41 19.315+01 21 57.79   ~93IM 21.52wXNEOCPF51
     P11XSlD  C2024 09 03.47353622 41 22.372+01 21 22.64   ~93IM 21.11wXNEOCPF51
     P11XSlD 1C2024 09 04.01367 22 43 50.52 +00 54 40.0    ~946b 21.1 VXNEOCP033
     P11XSlD 1C2024 09 04.01699 22 43 51.39 +00 54 30.3    ~946b 21.4 VXNEOCP033
     P11XSlD 1C2024 09 04.02032 22 43 52.24 +00 54 20.8    ~946b 20.6 VXNEOCP033
     P11XSlD !C2024 09 04.34753 22 45 22.81 +00 38 26.0    ~9497 21.0 GVNEOCP673
     P11XSlD !C2024 09 04.35434 22 45 24.54 +00 38 05.3    ~9497       VNEOCP673
     P11XSlD  C2024 09 04.44629522 45 50.187+00 33 44.17   ~94K7 21.31GVNEOCPF51
     P11XSlD  C2024 09 04.44711522 45 50.389+00 33 41.69   ~94K7 21.32GVNEOCPF51
     P11XSlD !C2024 09 05.30705 22 49 50.23 -00 09 19.7    ~9587 21.2 GVNEOCP673
     P11XSlD !C2024 09 05.31247 22 49 51.65 -00 09 36.8    ~9587       VNEOCP673
     P11XSlD  C2024 09 05.39910522 50 16.325-00 13 46.07   ~95Bq 21.57wXNEOCPF51
     P11XSlD  C2024 09 05.41249422 50 19.798-00 14 26.46   ~95Bq 20.91wXNEOCPF51
     P11XSlD  C2024 09 05.42585522 50 23.288-00 15 07.07   ~95Bq 21.30wXNEOCPF51
     P11XSlD  C2024 09 05.43918522 50 26.722-00 15 47.05   ~95Bq 21.32wXNEOCPF51
     P11XSlD  C2024 09 05.52914822 50 50.189-00 20 18.44   ~95Ib 21.42GVNEOCPF52

Station data:
(033) Karl Schwarzschild Observatory, Tautenburg  (N50.980139 E11.711240)
   Germany.  Observer B. Stecklum. 1.34-m f/3 Schmidt + CCD.
(673) Table Mountain Observatory, Wrightwood  (N34.381485 W117.682170)
   US/California.  Observers J. Chesley, J. Pittichova. Measurer W. M. Owen
   Jr. 0.61-m f/16 reflector + CCD.
(F51) Pan-STARRS 1, Haleakala  (N20.707234 W156.255910)  US/Hawaii.
   Observers J. Bulger, T. Lowe, A. Schultz, M. Willman. Measurers K.
   Chambers, S. Chastel, T. de Boer, L. Denneau, J. Fairlamb, H. Flewelling,
   M. Huber, C.-C. Lin, E. Magnier, Y. Ramanjooloo, R. Wainscoat, R. Weryk.
   1.8-m Ritchey-Chrétien + CCD.
(F52) Pan-STARRS 2, Haleakala  (N20.707382 W156.255910)  US/Hawaii.
   Observers J. Bulger, T. Dukes, T. Lowe, A. Schultz, M. Willman. Measurers
   K. Chambers, S. Chastel, T. de Boer, L. Denneau, J. Fairlamb, H.
   Flewelling, M. Huber, C.-C. Lin, E. Magnier, Y. Ramanjooloo, R. Wainscoat,
   R. Weryk. 1.8-m Ritchey-Chrétien + CCD.
(G96) Mt. Lemmon Survey  (N32.442729 W110.788720)  US/Arizona.  Observer E.
   J. Christensen. 1.5-m reflector + 10K CCD.

Orbital elements:  P11XSlD
   Perihelion 2024 Sep 12.03894 +/- 0.0445 TT =  0:56:04 (JD 2460565.53894)
Epoch 2024 Sep  5.0 TT = JDT 2460558.5   Earth MOID: 0.1636      AutoNEOCP
M 358.19560875 +/- 0.025            (J2000 ecliptic)
n   0.25634421 +/- 0.00297          Peri.  181.27694 +/- 0.043
a   2.45425883 +/- 0.019            Node   168.10702 +/- 0.0009
e   0.5231482 +/- 0.00334           Incl.   10.59850 +/- 0.046
P   3.84486                H 24.39  G  0.15   U  8.8
q 1.17031750 +/- 0.000842    Q 3.73820017 +/- 0.0371
From 21 observations 2024 Sept. 3-5; mean residual 0".27
Residuals in arcseconds: 
240903 G96  .98+  .42+    240904 033  .17-  .02+    240905 673  .02-  .29+    
240903 G96  .21-  .31+    240904 033  .16-  .09+    240905 673  .04+  .50-    
240903 G96  .23+  .17-    240904 033  .50-  .40+    240905 F51  .10-  .10+    
240903 G96  .03+  .09+    240904 673  .49+  .17+    240905 F51  .09-  .08+    
240903 F51  .26-  .20+    240904 673  .05+  .36-    240905 F51  .32+  .24-    
240903 F51  .07+  .14-    240904 F51  .01+  .09-    240905 F51  .00   .02-    
240903 F51  .10+  .13-    240904 F51  .11-  .14-    240905 F52  .04-  .11+    

Ephemerides (geocentric):
Date (UTC) HH   RA             Dec           delta  r     elong  mag " sig PA
---- --------  ------------   ------------  ------ ------ -----  --- --------
2024 09 06 05  22 54 03.263   -00 54 20.53  .16495 1.1722 174.3 21.2 .092  42
2024 09 06 06  22 54 15.032   -00 56 27.55  .16492 1.1722 174.4 21.2 .091  43
2024 09 06 07  22 54 26.806   -00 58 34.63  .16489 1.1722 174.4 21.2 .091  45
2024 09 06 08  22 54 38.584   -01 00 41.77  .16486 1.1722 174.5 21.2 .090  46
2024 09 06 09  22 54 50.367   -01 02 48.98  .16484 1.1721 174.5 21.2 .090  48
2024 09 06 10  22 55 02.155   -01 04 56.25  .16481 1.1721 174.6 21.2 .090  49
2024 09 06 11  22 55 13.948   -01 07 03.58  .16478 1.1721 174.6 21.2 .089  51
2024 09 06 12  22 55 25.746   -01 09 10.98  .16475 1.1720 174.7 21.2 .089  53
2024 09 06 13  22 55 37.549   -01 11 18.43  .16472 1.1720 174.7 21.2 .089  54
2024 09 06 14  22 55 49.356   -01 13 25.94  .16470 1.1720 174.8 21.2 .089  56
2024 09 06 15  22 56 01.168   -01 15 33.50  .16467 1.1720 174.8 21.2 .089  58
2024 09 06 16  22 56 12.984   -01 17 41.13  .16464 1.1719 174.9 21.2 .089  60
2024 09 06 17  22 56 24.805   -01 19 48.81  .16462 1.1719 174.9 21.2 .089  61
2024 09 06 18  22 56 36.631   -01 21 56.54  .16459 1.1719 175.0 21.2 .090  63
2024 09 06 19  22 56 48.461   -01 24 04.34  .16457 1.1719 175.0 21.2 .090  65
2024 09 06 20  22 57 00.295   -01 26 12.18  .16454 1.1718 175.1 21.2 .091  67
2024 09 06 21  22 57 12.134   -01 28 20.08  .16452 1.1718 175.1 21.2 .091  68
2024 09 06 22  22 57 23.978   -01 30 28.03  .16449 1.1718 175.2 21.2 .092  70
2024 09 06 23  22 57 35.826   -01 32 36.03  .16447 1.1718 175.3 21.2 .093  72
2024 09 07 00  22 57 47.678   -01 34 44.08  .16444 1.1718 175.3 21.2 .093  74
2024 09 07 01  22 57 59.534   -01 36 52.19  .16442 1.1717 175.4 21.2 .094  75
2024 09 07 02  22 58 11.395   -01 39 00.34  .16440 1.1717 175.4 21.2 .095  77
2024 09 07 03  22 58 23.260   -01 41 08.54  .16438 1.1717 175.5 21.2 .096  79
2024 09 07 04  22 58 35.129   -01 43 16.79  .16435 1.1717 175.5 21.2 .098  80
2024 09 07 05  22 58 47.002   -01 45 25.08  .16433 1.1716 175.6 21.2 .099  82
2024 09 07 06  22 58 58.879   -01 47 33.42  .16431 1.1716 175.6 21.2 .100  83
2024 09 07 07  22 59 10.761   -01 49 41.81  .16429 1.1716 175.7 21.2 .102  85
2024 09 07 08  22 59 22.646   -01 51 50.24  .16427 1.1716 175.7 21.2 .103  86
2024 09 07 09  22 59 34.536   -01 53 58.71  .16425 1.1715 175.8 21.2 .105  88
2024 09 07 10  22 59 46.429   -01 56 07.23  .16422 1.1715 175.8 21.2 .107  89
2024 09 07 11  22 59 58.326   -01 58 15.79  .16420 1.1715 175.9 21.1 .108  91
2024 09 07 12  23 00 10.228   -02 00 24.39  .16418 1.1715 175.9 21.1 .110  92
2024 09 07 13  23 00 22.133   -02 02 33.03  .16416 1.1715 176.0 21.1 .112  93
2024 09 07 14  23 00 34.042   -02 04 41.71  .16415 1.1714 176.0 21.1 .114  95
2024 09 07 15  23 00 45.954   -02 06 50.43  .16413 1.1714 176.1 21.1 .116  96
2024 09 07 16  23 00 57.871   -02 08 59.19  .16411 1.1714 176.1 21.1 .118  97
2024 09 07 17  23 01 09.791   -02 11 07.98  .16409 1.1714 176.2 21.1 .120  98
2024 09 07 18  23 01 21.714   -02 13 16.82  .16407 1.1714 176.3 21.1 .123  99
2024 09 07 19  23 01 33.642   -02 15 25.68  .16405 1.1713 176.3 21.1 .125 100
2024 09 07 20  23 01 45.573   -02 17 34.58  .16404 1.1713 176.4 21.1 .127 101
2024 09 07 21  23 01 57.507   -02 19 43.52  .16402 1.1713 176.4 21.1 .130 102
2024 09 07 22  23 02 09.445   -02 21 52.49  .16400 1.1713 176.5 21.1 .132 103
2024 09 07 23  23 02 21.387   -02 24 01.49  .16399 1.1713 176.5 21.1 .134 104
2024 09 08 00  23 02 33.332   -02 26 10.52  .16397 1.1712 176.6 21.1 .137 105
2024 09 08 01  23 02 45.280   -02 28 19.58  .16395 1.1712 176.6 21.1 .139 106
2024 09 08 02  23 02 57.232   -02 30 28.68  .16394 1.1712 176.7 21.1 .142 107
2024 09 08 03  23 03 09.187   -02 32 37.80  .16392 1.1712 176.7 21.1 .145 108
2024 09 08 04  23 03 21.145   -02 34 46.95  .16391 1.1712 176.8 21.1 .147 108